Time,TemperatureF,DewpointF,PressureIn,WindDirection,WindDirectionDegrees,WindSpeedMPH,WindSpeedGustMPH,Humidity,HourlyPrecipIn,Conditions,Clouds,dailyrainin,SolarRadiationWatts/m^2,SoftwareType,DateUTC
2013-11-09 00:03:00,30.0,23.0,-100.00,South,189,2.0,6.0,75,0.00,,,0.00,0.000000,,2013-11-09 05:03:00,
2013-11-09 00:44:00,29.0,24.0,-100.00,SSW,207,3.0,8.0,82,0.00,,,0.00,0.000000,,2013-11-09 05:44:00,
2013-11-09 00:53:00,29.0,24.0,-100.00,SSW,207,3.0,8.0,82,0.00,,,0.00,0.000000,,2013-11-09 05:53:00,
2013-11-09 01:03:00,29.0,24.0,-100.00,SSW,207,3.0,8.0,82,0.00,,,0.00,0.000000,,2013-11-09 06:03:00,
2013-11-09 01:43:00,29.0,23.0,-100.00,SSW,199,1.0,5.0,77,0.00,,,0.00,0.000000,,2013-11-09 06:43:00,
2013-11-09 01:54:00,29.0,23.0,-100.00,SSW,199,1.0,5.0,77,0.00,,,0.00,0.000000,,2013-11-09 06:54:00,
2013-11-09 02:03:00,29.0,23.0,-100.00,SSW,199,1.0,5.0,77,0.00,,,0.00,0.000000,,2013-11-09 07:03:00,
2013-11-09 02:42:00,27.0,22.0,-100.00,South,191,1.0,6.0,80,0.00,,,0.00,0.000000,,2013-11-09 07:42:00,
2013-11-09 02:53:00,27.0,22.0,-100.00,South,191,1.0,6.0,80,0.00,,,0.00,0.000000,,2013-11-09 07:53:00,
2013-11-09 03:02:00,27.0,22.0,-100.00,South,191,1.0,6.0,80,0.00,,,0.00,0.000000,,2013-11-09 08:02:00,
2013-11-09 03:42:00,28.0,24.0,-100.00,SSW,206,2.0,4.0,84,0.00,,,0.00,0.000000,,2013-11-09 08:42:00,
2013-11-09 03:52:00,28.0,24.0,-100.00,SSW,206,2.0,4.0,84,0.00,,,0.00,0.000000,,2013-11-09 08:52:00,
2013-11-09 04:02:00,28.0,24.0,-100.00,SSW,206,2.0,4.0,84,0.00,,,0.00,0.000000,,2013-11-09 09:02:00,
2013-11-09 04:43:00,27.0,23.0,-100.00,South,180,1.0,4.0,85,0.00,,,0.00,0.000000,,2013-11-09 09:43:00,
2013-11-09 04:53:00,27.0,23.0,-100.00,South,180,1.0,4.0,85,0.00,,,0.00,0.000000,,2013-11-09 09:53:00,
2013-11-09 05:03:00,27.0,23.0,-100.00,South,180,1.0,4.0,85,0.00,,,0.00,0.000000,,2013-11-09 10:03:00,
2013-11-09 05:43:00,28.0,24.0,-100.00,WSW,246,1.0,5.0,85,0.00,,,0.00,0.000000,,2013-11-09 10:43:00,
2013-11-09 05:52:00,28.0,24.0,-100.00,WSW,246,1.0,5.0,85,0.00,,,0.00,0.000000,,2013-11-09 10:52:00,
2013-11-09 06:03:00,28.0,24.0,-100.00,WSW,246,1.0,5.0,85,0.00,,,0.00,0.000000,,2013-11-09 11:03:00,
2013-11-09 06:43:00,28.0,23.0,-100.00,ENE,76,1.0,3.0,81,0.00,,,0.00,0.000000,,2013-11-09 11:43:00,
2013-11-09 06:52:00,28.0,23.0,-100.00,ENE,76,1.0,3.0,81,0.00,,,0.00,0.000000,,2013-11-09 11:52:00,
2013-11-09 07:02:00,28.0,23.0,-100.00,ENE,76,1.0,3.0,81,0.00,,,0.00,0.000000,,2013-11-09 12:02:00,
2013-11-09 07:42:00,32.0,23.0,-100.00,SSW,205,4.0,6.0,69,0.00,,,0.00,2.000000,,2013-11-09 12:42:00,
2013-11-09 07:52:00,32.0,23.0,-100.00,SSW,205,4.0,6.0,69,0.00,,,0.00,2.000000,,2013-11-09 12:52:00,
2013-11-09 08:02:00,32.0,23.0,-100.00,SSW,205,4.0,6.0,69,0.00,,,0.00,2.000000,,2013-11-09 13:02:00,
2013-11-09 08:42:00,33.0,23.0,-100.00,WSW,249,2.0,6.0,66,0.00,,,0.00,58.000000,,2013-11-09 13:42:00,
2013-11-09 08:52:00,33.0,23.0,-100.00,WSW,249,2.0,6.0,66,0.00,,,0.00,58.000000,,2013-11-09 13:52:00,
2013-11-09 09:02:00,33.0,23.0,-100.00,WSW,249,2.0,6.0,66,0.00,,,0.00,58.000000,,2013-11-09 14:02:00,
2013-11-09 09:42:00,36.0,24.0,-100.00,SW,234,5.0,9.0,61,0.00,,,0.00,122.000000,,2013-11-09 14:42:00,
2013-11-09 09:52:00,36.0,24.0,-100.00,SW,234,5.0,9.0,61,0.00,,,0.00,122.000000,,2013-11-09 14:52:00,
2013-11-09 10:02:00,36.0,24.0,-100.00,SW,234,5.0,9.0,61,0.00,,,0.00,122.000000,,2013-11-09 15:02:00,
2013-11-09 10:44:00,39.0,25.0,-100.00,WSW,246,5.0,12.0,58,0.00,,,0.00,223.000000,,2013-11-09 15:44:00,
2013-11-09 10:54:00,39.0,25.0,-100.00,WSW,246,5.0,12.0,58,0.00,,,0.00,223.000000,,2013-11-09 15:54:00,
2013-11-09 11:03:00,39.0,25.0,-100.00,WSW,246,5.0,12.0,58,0.00,,,0.00,223.000000,,2013-11-09 16:03:00,
2013-11-09 11:43:00,42.0,26.0,-100.00,SW,233,6.0,15.0,52,0.00,,,0.00,429.000000,,2013-11-09 16:43:00,
2013-11-09 11:53:00,42.0,26.0,-100.00,SW,233,6.0,15.0,52,0.00,,,0.00,429.000000,,2013-11-09 16:53:00,
2013-11-09 12:03:00,42.0,26.0,-100.00,SW,233,6.0,15.0,52,0.00,,,0.00,429.000000,,2013-11-09 17:03:00,
2013-11-09 12:44:00,43.0,25.0,-100.00,SW,215,8.0,16.0,49,0.00,,,0.00,429.000000,,2013-11-09 17:44:00,
2013-11-09 12:52:00,43.0,25.0,-100.00,SW,215,8.0,16.0,49,0.00,,,0.00,429.000000,,2013-11-09 17:52:00,
2013-11-09 13:02:00,43.0,25.0,-100.00,SW,215,8.0,16.0,49,0.00,,,0.00,429.000000,,2013-11-09 18:02:00,
2013-11-09 13:42:00,44.0,26.0,-100.00,SSW,201,9.0,15.0,49,0.00,,,0.00,468.000000,,2013-11-09 18:42:00,
2013-11-09 13:52:00,44.0,26.0,-100.00,SSW,201,9.0,15.0,49,0.00,,,0.00,468.000000,,2013-11-09 18:52:00,
2013-11-09 14:02:00,44.0,26.0,-100.00,SSW,201,9.0,15.0,49,0.00,,,0.00,468.000000,,2013-11-09 19:02:00,
2013-11-09 14:42:00,44.0,26.0,-100.00,SSW,209,9.0,16.0,48,0.00,,,0.00,308.000000,,2013-11-09 19:42:00,
2013-11-09 14:52:00,44.0,26.0,-100.00,SSW,209,9.0,16.0,48,0.00,,,0.00,308.000000,,2013-11-09 19:52:00,
2013-11-09 15:02:00,44.0,26.0,-100.00,SSW,209,9.0,16.0,48,0.00,,,0.00,308.000000,,2013-11-09 20:02:00,
2013-11-09 15:42:00,43.0,24.0,-100.00,SSW,211,9.0,19.0,46,0.00,,,0.00,141.000000,,2013-11-09 20:42:00,
2013-11-09 15:52:00,43.0,24.0,-100.00,SSW,211,9.0,19.0,46,0.00,,,0.00,141.000000,,2013-11-09 20:52:00,
2013-11-09 16:03:00,43.0,24.0,-100.00,SSW,211,9.0,19.0,46,0.00,,,0.00,141.000000,,2013-11-09 21:03:00,
2013-11-09 16:44:00,43.0,24.0,-100.00,SSW,207,10.0,18.0,46,0.00,,,0.00,57.000000,,2013-11-09 21:44:00,
2013-11-09 16:54:00,43.0,24.0,-100.00,SSW,207,10.0,18.0,46,0.00,,,0.00,57.000000,,2013-11-09 21:54:00,
2013-11-09 17:04:00,43.0,24.0,-100.00,SSW,207,10.0,18.0,46,0.00,,,0.00,57.000000,,2013-11-09 22:04:00,
2013-11-09 17:43:00,43.0,24.0,-100.00,SSW,205,12.0,21.0,46,0.00,,,0.00,20.000000,,2013-11-09 22:43:00,
2013-11-09 17:54:00,43.0,24.0,-100.00,SSW,205,12.0,21.0,46,0.00,,,0.00,20.000000,,2013-11-09 22:54:00,
2013-11-09 18:02:00,43.0,24.0,-100.00,SSW,205,12.0,21.0,46,0.00,,,0.00,20.000000,,2013-11-09 23:02:00,
2013-11-09 18:42:00,42.0,24.0,-100.00,SSW,207,9.0,19.0,48,0.00,,,0.00,0.000000,,2013-11-09 23:42:00,
2013-11-09 18:53:00,42.0,24.0,-100.00,SSW,207,9.0,19.0,48,0.00,,,0.00,0.000000,,2013-11-09 23:53:00,
2013-11-09 19:02:00,42.0,24.0,-100.00,SSW,207,9.0,19.0,48,0.00,,,0.00,0.000000,,2013-11-10 00:02:00,
2013-11-09 19:42:00,41.0,24.0,-100.00,South,191,8.0,18.0,50,0.00,,,0.00,0.000000,,2013-11-10 00:42:00,
2013-11-09 19:52:00,41.0,24.0,-100.00,South,191,8.0,18.0,50,0.00,,,0.00,0.000000,,2013-11-10 00:52:00,
2013-11-09 20:02:00,41.0,24.0,-100.00,South,191,8.0,18.0,50,0.00,,,0.00,0.000000,,2013-11-10 01:02:00,
2013-11-09 20:42:00,41.0,24.0,-100.00,South,191,7.0,17.0,51,0.00,,,0.00,0.000000,,2013-11-10 01:42:00,
2013-11-09 20:52:00,41.0,24.0,-100.00,South,191,7.0,17.0,51,0.00,,,0.00,0.000000,,2013-11-10 01:52:00,
2013-11-09 21:02:00,41.0,24.0,-100.00,South,191,7.0,17.0,51,0.00,,,0.00,0.000000,,2013-11-10 02:02:00,
2013-11-09 21:42:00,42.0,25.0,-100.00,SSW,197,11.0,18.0,51,0.00,,,0.00,0.000000,,2013-11-10 02:42:00,
2013-11-09 21:52:00,42.0,25.0,-100.00,SSW,197,11.0,18.0,51,0.00,,,0.00,0.000000,,2013-11-10 02:52:00,
2013-11-09 22:03:00,42.0,25.0,-100.00,SSW,197,11.0,18.0,51,0.00,,,0.00,0.000000,,2013-11-10 03:03:00,
2013-11-09 22:44:00,42.0,25.0,-100.00,SSW,209,11.0,18.0,50,0.00,,,0.00,0.000000,,2013-11-10 03:44:00,
2013-11-09 22:54:00,42.0,25.0,-100.00,SSW,209,11.0,18.0,50,0.00,,,0.00,0.000000,,2013-11-10 03:54:00,
2013-11-09 23:02:00,-999.0,-99.9,-100.00,SSW,209,11.0,18.0,-999,-99.99,,,-99.99,0.000000,,2013-11-10 04:02:00,
2013-11-09 23:43:00,42.0,25.0,-100.00,SW,227,9.0,17.0,50,0.00,,,0.00,0.000000,,2013-11-10 04:43:00,
2013-11-09 23:52:00,42.0,25.0,-100.00,SW,227,9.0,17.0,50,0.00,,,0.00,0.000000,,2013-11-10 04:52:00,